• Join FlightAware (Why Join?)
  • Login
  • US Flag 
05:00AM EST


 

Airport Tracker/Info


-or-


 

Live Flight TrackerFlight Track Log ✈ N436CB ✈ 07-Jul-2014 ✈ KBED - KOXB

Flight Track Log - Related Links

Times and Time Zones

All times are in EDT time to prevent confusion due to time zone crossing. See the N436CB flight status page for this flight to view local times or setup timezone preferences in your user account.

Time Position Orientation Groundspeed Altitude Reporting Facility
EDT Latitude Longitude Course Direction KTS MPH feet Rate Location/Type
01:27PM 42.4167 -71.3333 212° Southwest 145 167 2,900  Level KA90
01:28PM 42.3939 -71.3617 223° Southwest 142 163 3,100 1,080 Climbing Boston Center
01:29PM 42.3614 -71.3933 216° Southwest 144 166 4,700 1,440 Climbing Boston Center
01:30PM 42.3236 -71.4219 209° Southwest 144 166 6,100 1,320 Climbing Boston Center
01:31PM 42.2858 -71.4500 209° Southwest 151 174 7,400 1,380 Climbing Boston Center
01:32PM 42.2497 -71.4803 212° Southwest 152 175 9,000 1,620 Climbing Boston Center
01:33PM 42.2092 -71.5114 210° Southwest 154 177 10,800 1,620 Climbing Boston Center
01:34PM 42.1708 -71.5392 208° Southwest 155 178 12,400 1,620 Climbing Boston Center
01:35PM 42.1353 -71.5767 218° Southwest 159 183 14,200 1,800 Climbing Boston Center
01:36PM 42.0969 -71.6167 218° Southwest 161 185 16,200 1,740 Climbing Boston Center
01:37PM 42.0594 -71.6550 217° Southwest 166 191 17,800 1,560 Climbing Boston Center
01:38PM 42.0242 -71.6911 217° Southwest 169 194 19,500 1,560 Climbing Boston Center
01:39PM 41.9861 -71.7311 218° Southwest 170 196 21,000 1,440 Climbing Boston Center
01:40PM 41.9450 -71.7739 218° Southwest 182 209 22,500 1,320 Climbing Boston Center
01:41PM 41.9031 -71.8172 218° Southwest 187 215 23,800 1,260 Climbing Boston Center
01:42PM 41.8608 -71.8589 216° Southwest 187 215 25,100 1,200 Climbing Boston Center
01:43PM 41.8089 -71.9128 218° Southwest 192 221 26,300 1,140 Climbing Boston Center
01:44PM 41.7653 -71.9583 218° Southwest 198 228 27,500 780 Climbing Boston Center
01:45PM 41.7197 -72.0039 217° Southwest 201 231 28,000 240 Climbing Boston Center
01:46PM 41.6667 -72.0589 218° Southwest 236 272 28,000  Level Boston Center
01:47PM 41.6094 -72.1158 217° Southwest 254 292 28,000  Level Boston Center
01:48PM 41.5497 -72.1778 218° Southwest 267 307 28,000  Level Boston Center
01:49PM 41.4839 -72.2433 217° Southwest 267 307 28,000  Level Boston Center
01:50PM 41.4239 -72.3056 218° Southwest 269 310 28,000  Level Boston Center
01:51PM 41.3639 -72.3647 217° Southwest 271 312 28,000  Level Boston Center
01:52PM 41.3044 -72.4253 217° Southwest 270 311 28,000  Level Boston Center
01:53PM 41.2386 -72.4908 217° Southwest 270 311 28,000  Level Boston Center
01:54PM 41.1792 -72.5506 217° Southwest 270 311 28,000  Level Boston Center
01:55PM 41.1192 -72.6103 217° Southwest 270 311 28,000  Level Boston Center
01:56PM 41.0600 -72.6697 217° Southwest 269 310 28,000  Level Boston Center
01:57PM 40.9997 -72.7297 217° Southwest 269 310 28,000  Level Boston Center
01:58PM 40.9408 -72.7897 218° Southwest 269 310 28,000  Level Boston Center
01:59PM 40.8672 -72.8572 215° Southwest 269 310 28,000  Level Boston Center
02:00PM 40.8050 -72.9125 214° Southwest 270 311 28,000  Level Boston Center
02:02PM 40.7436 -72.9675 214° Southwest 270 311 28,000  Level Boston Center
02:03PM 40.6806 -73.0233 214° Southwest 270 311 28,000  Level Boston Center
02:04PM 40.6183 -73.0781 214° Southwest 270 311 28,000  Level Boston Center
02:05PM 40.5558 -73.1347 215° Southwest 270 311 28,000  Level Boston Center
02:06PM 40.4944 -73.1878 213° Southwest 270 311 28,000  Level Boston Center
02:07PM 40.4314 -73.2444 214° Southwest 270 311 28,000  Level Boston Center
02:08PM 40.3561 -73.3108 214° Southwest 270 311 28,000  Level Boston Center
02:09PM 40.2931 -73.3672 214° Southwest 271 312 28,000  Level Boston Center
02:10PM 40.2292 -73.4214 213° Southwest 272 313 28,000  Level Boston Center
02:11PM 40.1653 -73.4781 214° Southwest 273 314 28,000  Level Boston Center
02:11PM 40.1247 -73.5158 215° Southwest 291 335 28,000  Level Washington Center
02:12PM 40.0589 -73.5722 213° Southwest 291 335 28,000  Level Washington Center
02:13PM 40.0378 -73.5906 214° Southwest 274 315 28,000  Level Boston Center
02:14PM 39.9744 -73.6436 213° Southwest 274 315 28,000  Level Boston Center
02:15PM 39.9094 -73.6986 213° Southwest 274 315 28,000  Level Boston Center
02:16PM 39.8344 -73.7661 215° Southwest 274 315 28,000 -300 Level Boston Center
02:17PM 39.7703 -73.8219 214° Southwest 275 316 27,500 -840 Descending Boston Center
02:18PM 39.7042 -73.8842 216° Southwest 284 327 26,400 -1,140 Descending Boston Center
02:19PM 39.6025 -73.9783 216° Southwest 299 344 24,800 -1,020 Descending Washington Center
02:20PM 39.5408 -74.0333 215° Southwest 299 344 24,000 -420 Descending Washington Center
02:21PM 39.4769 -74.0914 215° Southwest 304 350 24,000 -240 Level Washington Center
02:22PM 39.4131 -74.1492 215° Southwest 294 338 23,600 -780 Descending Washington Center
02:23PM 39.3667 -74.1897 214° Southwest 280 322 22,700 -1,200 Descending Boston Center
02:24PM 39.2992 -74.2514 215° Southwest 292 336 21,600 -1,080 Descending Boston Center
02:25PM 39.2150 -74.3272 215° Southwest 295 339 20,400 -1,020 Descending Washington Center
02:26PM 39.1594 -74.3950 223° Southwest 289 333 19,400 -1,020 Descending Washington Center
02:27PM 39.1058 -74.4656 226° Southwest 284 327 18,400 -1,200 Descending Washington Center
02:28PM 39.0503 -74.5358 225° Southwest 284 327 17,100 -1,320 Descending Washington Center
02:29PM 39.0114 -74.6192 239° Southwest 284 327 15,900 -600 Descending Washington Center
02:30PM 38.9850 -74.7050 248° West 271 312 15,900  Level Washington Center
02:31PM 38.9333 -74.7592 219° Southwest 262 302 15,900  Level Washington Center
02:32PM 38.8731 -74.7917 203° Southwest 237 273 15,900 -480 Level Washington Center
02:33PM 38.8169 -74.8269 206° Southwest 237 273 15,000 -1,140 Descending Washington Center
02:34PM 38.7567 -74.8650 206° Southwest 237 273 13,700 -1,380 Descending Washington Center
02:35PM 38.7006 -74.8947 202° Southwest 237 273 12,300 -1,500 Descending Washington Center
02:36PM 38.6444 -74.9325 208° Southwest 237 273 10,800 -1,620 Descending Washington Center
02:37PM 38.5883 -74.9650 204° Southwest 237 273 9,100 -1,740 Descending Washington Center
02:38PM 38.5344 -74.9944 203° Southwest 232 267 7,400 -1,800 Descending Washington Center
02:39PM 38.5053 -75.0106 203° Southwest 207 238 6,500 -1,740 Descending Washington Center
02:39PM 38.4908 -75.0214 210° Southwest 205 236 6,100 -720 Descending Washington Center
02:39PM 38.4742 -75.0322 207° Southwest 220 253 6,100  Level Washington Center